TimePST,TemperatureF,Dew PointF,Humidity,Sea Level PressureIn,VisibilityMPH,Wind Direction,Wind SpeedMPH,Gust SpeedMPH,PrecipitationIn,Events,Conditions,WindDirDegrees,DateUTC
12:53 AM,53.1,27.0,37,30.04,10.0,North,10.4,-,N/A,,Scattered Clouds,350,2013-01-28 08:53:00
1:53 AM,52.0,27.0,38,30.04,10.0,Variable,6.9,18.4,N/A,,Scattered Clouds,0,2013-01-28 09:53:00
2:53 AM,51.1,27.0,39,30.05,10.0,North,4.6,-,N/A,,Partly Cloudy,10,2013-01-28 10:53:00
3:53 AM,51.1,26.1,38,30.06,10.0,NW,12.7,-,N/A,,Partly Cloudy,320,2013-01-28 11:53:00
4:53 AM,51.1,26.1,38,30.05,10.0,North,12.7,21.9,N/A,,Partly Cloudy,10,2013-01-28 12:53:00
5:53 AM,51.1,27.0,39,30.06,10.0,NNW,15.0,23.0,N/A,,Scattered Clouds,340,2013-01-28 13:53:00
6:53 AM,51.1,27.0,39,30.08,10.0,NNW,12.7,19.6,N/A,,Scattered Clouds,340,2013-01-28 14:53:00
7:53 AM,52.0,27.0,38,30.09,10.0,NNW,10.4,20.7,N/A,,Scattered Clouds,340,2013-01-28 15:53:00
8:53 AM,54.0,26.1,34,30.09,10.0,North,16.1,25.3,N/A,,Scattered Clouds,360,2013-01-28 16:53:00
9:53 AM,55.9,26.1,32,30.12,10.0,North,16.1,26.5,N/A,,Scattered Clouds,360,2013-01-28 17:53:00
10:53 AM,57.0,26.1,30,30.13,10.0,NW,12.7,20.7,N/A,,Scattered Clouds,310,2013-01-28 18:53:00
11:53 AM,59.0,26.1,28,30.12,10.0,NW,16.1,21.9,N/A,,Scattered Clouds,320,2013-01-28 19:53:00
12:39 PM,57.2,33.8,41,30.10,10.0,West,18.4,-,N/A,,Scattered Clouds,260,2013-01-28 20:39:00
12:53 PM,57.9,35.1,42,30.10,10.0,West,19.6,-,N/A,,Scattered Clouds,280,2013-01-28 20:53:00
1:53 PM,57.0,37.9,49,30.10,10.0,West,21.9,-,N/A,,Mostly Cloudy,270,2013-01-28 21:53:00
2:53 PM,57.0,37.0,47,30.10,10.0,West,23.0,-,N/A,,Mostly Cloudy,280,2013-01-28 22:53:00
3:53 PM,57.9,37.0,46,30.11,10.0,West,20.7,-,N/A,,Scattered Clouds,270,2013-01-28 23:53:00
4:53 PM,55.9,42.1,60,30.12,10.0,West,15.0,-,N/A,,Mostly Cloudy,280,2013-01-29 00:53:00
5:53 PM,55.9,34.0,44,30.13,10.0,NW,8.1,-,N/A,,Scattered Clouds,320,2013-01-29 01:53:00
6:53 PM,55.0,27.0,34,30.14,10.0,NNW,8.1,-,N/A,,Scattered Clouds,330,2013-01-29 02:53:00
7:53 PM,54.0,27.0,35,30.16,10.0,North,10.4,-,N/A,,Partly Cloudy,10,2013-01-29 03:53:00
8:53 PM,53.1,28.0,38,30.16,10.0,North,11.5,-,N/A,,Scattered Clouds,360,2013-01-29 04:53:00
9:53 PM,54.0,28.0,37,30.17,10.0,NNW,10.4,19.6,N/A,,Scattered Clouds,340,2013-01-29 05:53:00
10:53 PM,51.1,30.0,44,30.17,10.0,ENE,5.8,-,N/A,,Scattered Clouds,60,2013-01-29 06:53:00
11:53 PM,53.1,28.0,38,30.19,10.0,Variable,3.5,-,N/A,,Partly Cloudy,0,2013-01-29 07:53:00